category,name,time,total,current
太陽能(Solar),東勢新伯公,00:00:00,0.1,0
太陽能(Solar),東勢新伯公,00:10:00,0.1,0
太陽能(Solar),東勢新伯公,00:20:00,0.1,0
太陽能(Solar),東勢新伯公,00:30:00,0.1,0
太陽能(Solar),東勢新伯公,00:40:00,0.1,0
太陽能(Solar),東勢新伯公,00:50:00,0.1,0
太陽能(Solar),東勢新伯公,01:00:00,0.1,0
太陽能(Solar),東勢新伯公,01:10:00,0.1,0
太陽能(Solar),東勢新伯公,01:20:00,0.1,0
太陽能(Solar),東勢新伯公,01:30:00,0.1,0
太陽能(Solar),東勢新伯公,01:40:00,0.1,0
太陽能(Solar),東勢新伯公,01:50:00,0.1,0
太陽能(Solar),東勢新伯公,02:00:00,0.1,0
太陽能(Solar),東勢新伯公,02:10:00,0.1,0
太陽能(Solar),東勢新伯公,02:20:00,0.1,0
太陽能(Solar),東勢新伯公,02:30:00,0.1,0
太陽能(Solar),東勢新伯公,02:40:00,0.1,0
太陽能(Solar),東勢新伯公,02:50:00,0.1,0
太陽能(Solar),東勢新伯公,03:00:00,0.1,0
太陽能(Solar),東勢新伯公,03:10:00,0.1,0
太陽能(Solar),東勢新伯公,03:20:00,0.1,0
太陽能(Solar),東勢新伯公,03:30:00,0.1,0
太陽能(Solar),東勢新伯公,03:40:00,0.1,0
太陽能(Solar),東勢新伯公,03:50:00,0.1,0
太陽能(Solar),東勢新伯公,04:00:00,0.1,0
太陽能(Solar),東勢新伯公,04:10:00,0.1,0
太陽能(Solar),東勢新伯公,04:20:00,0.1,0
太陽能(Solar),東勢新伯公,04:30:00,0.1,0
太陽能(Solar),東勢新伯公,04:40:00,0.1,0
太陽能(Solar),東勢新伯公,04:50:00,0.1,0
太陽能(Solar),東勢新伯公,05:00:00,0.1,0
太陽能(Solar),東勢新伯公,05:10:00,0.1,0
太陽能(Solar),東勢新伯公,05:20:00,0.1,0
太陽能(Solar),東勢新伯公,05:30:00,0.1,0
太陽能(Solar),東勢新伯公,05:40:00,0.1,0
太陽能(Solar),東勢新伯公,05:50:00,0.1,0
太陽能(Solar),東勢新伯公,06:00:00,0.1,0
太陽能(Solar),東勢新伯公,06:10:00,0.1,0
太陽能(Solar),東勢新伯公,06:20:00,0.1,0
太陽能(Solar),東勢新伯公,06:30:00,0.1,0
太陽能(Solar),東勢新伯公,06:40:00,0.1,0
太陽能(Solar),東勢新伯公,06:50:00,0.1,0.001
太陽能(Solar),東勢新伯公,07:00:00,0.1,0.007
太陽能(Solar),東勢新伯公,07:10:00,0.1,0.013
太陽能(Solar),東勢新伯公,07:20:00,0.1,0.017
太陽能(Solar),東勢新伯公,07:30:00,0.1,0.021
太陽能(Solar),東勢新伯公,07:40:00,0.1,0.024
太陽能(Solar),東勢新伯公,07:50:00,0.1,0.029
太陽能(Solar),東勢新伯公,08:00:00,0.1,0.032
太陽能(Solar),東勢新伯公,08:10:00,0.1,0.035
太陽能(Solar),東勢新伯公,08:20:00,0.1,0.04
太陽能(Solar),東勢新伯公,08:30:00,0.1,0.044
太陽能(Solar),東勢新伯公,08:40:00,0.1,0.048
太陽能(Solar),東勢新伯公,08:50:00,0.1,0.052
太陽能(Solar),東勢新伯公,09:00:00,0.1,0.057
太陽能(Solar),東勢新伯公,09:10:00,0.1,0.055
太陽能(Solar),東勢新伯公,09:20:00,0.1,0.012
太陽能(Solar),東勢新伯公,09:30:00,0.1,0.067
太陽能(Solar),東勢新伯公,09:40:00,0.1,0.07
太陽能(Solar),東勢新伯公,09:50:00,0.1,0.079
太陽能(Solar),東勢新伯公,10:00:00,0.1,0.036
太陽能(Solar),東勢新伯公,10:10:00,0.1,0.084
太陽能(Solar),東勢新伯公,10:20:00,0.1,0.08
太陽能(Solar),東勢新伯公,10:30:00,0.1,0.052
太陽能(Solar),東勢新伯公,10:40:00,0.1,0.067
太陽能(Solar),東勢新伯公,10:50:00,0.1,0.052
太陽能(Solar),東勢新伯公,11:00:00,0.1,0.044
太陽能(Solar),東勢新伯公,11:10:00,0.1,0.032
太陽能(Solar),東勢新伯公,11:20:00,0.1,0.054
太陽能(Solar),東勢新伯公,11:30:00,0.1,0.063
太陽能(Solar),東勢新伯公,11:40:00,0.1,0.08
太陽能(Solar),東勢新伯公,11:50:00,0.1,0.067
太陽能(Solar),東勢新伯公,12:00:00,0.1,0.075
太陽能(Solar),東勢新伯公,12:10:00,0.1,0.076
太陽能(Solar),東勢新伯公,12:20:00,0.1,0.078
太陽能(Solar),東勢新伯公,12:30:00,0.1,0.023
太陽能(Solar),東勢新伯公,12:40:00,0.1,0.088
太陽能(Solar),東勢新伯公,12:50:00,0.1,0.016
太陽能(Solar),東勢新伯公,13:00:00,0.1,0.018
太陽能(Solar),東勢新伯公,13:10:00,0.1,0.019
太陽能(Solar),東勢新伯公,13:20:00,0.1,0.022
太陽能(Solar),東勢新伯公,13:30:00,0.1,0.034
太陽能(Solar),東勢新伯公,13:40:00,0.1,0.015
太陽能(Solar),東勢新伯公,13:50:00,0.1,0.034
太陽能(Solar),東勢新伯公,14:00:00,0.1,0.018
太陽能(Solar),東勢新伯公,14:10:00,0.1,0.063
太陽能(Solar),東勢新伯公,14:20:00,0.1,0.028
太陽能(Solar),東勢新伯公,14:30:00,0.1,0.061
太陽能(Solar),東勢新伯公,14:40:00,0.1,0.029
太陽能(Solar),東勢新伯公,14:50:00,0.1,0.067
太陽能(Solar),東勢新伯公,15:00:00,0.1,0.022
太陽能(Solar),東勢新伯公,15:10:00,0.1,0.055
太陽能(Solar),東勢新伯公,15:20:00,0.1,0.042
太陽能(Solar),東勢新伯公,15:30:00,0.1,0.022
太陽能(Solar),東勢新伯公,15:40:00,0.1,0.049
太陽能(Solar),東勢新伯公,15:50:00,0.1,0.042
太陽能(Solar),東勢新伯公,16:00:00,0.1,0.039
太陽能(Solar),東勢新伯公,16:10:00,0.1,0.039
太陽能(Solar),東勢新伯公,16:20:00,0.1,0.04
太陽能(Solar),東勢新伯公,16:30:00,0.1,0.036
太陽能(Solar),東勢新伯公,16:40:00,0.1,0.029
太陽能(Solar),東勢新伯公,16:50:00,0.1,0.025
太陽能(Solar),東勢新伯公,17:00:00,0.1,0.025
太陽能(Solar),東勢新伯公,17:10:00,0.1,0.022
太陽能(Solar),東勢新伯公,17:20:00,0.1,0.018
太陽能(Solar),東勢新伯公,17:30:00,0.1,0.007
太陽能(Solar),東勢新伯公,17:40:00,0.1,0.007
太陽能(Solar),東勢新伯公,17:50:00,0.1,0.001
太陽能(Solar),東勢新伯公,18:00:00,0.1,0
太陽能(Solar),東勢新伯公,18:10:00,0.1,0
太陽能(Solar),東勢新伯公,18:20:00,0.1,0
太陽能(Solar),東勢新伯公,18:30:00,0.1,0
太陽能(Solar),東勢新伯公,18:40:00,0.1,0
太陽能(Solar),東勢新伯公,18:50:00,0.1,0
太陽能(Solar),東勢新伯公,19:00:00,0.1,0
太陽能(Solar),東勢新伯公,19:10:00,0.1,0
太陽能(Solar),東勢新伯公,19:20:00,0.1,0
太陽能(Solar),東勢新伯公,19:30:00,0.1,0
太陽能(Solar),東勢新伯公,19:40:00,0.1,0
太陽能(Solar),東勢新伯公,19:50:00,0.1,0
太陽能(Solar),東勢新伯公,20:00:00,0.1,0
太陽能(Solar),東勢新伯公,20:10:00,0.1,0
太陽能(Solar),東勢新伯公,20:20:00,0.1,0
太陽能(Solar),東勢新伯公,20:30:00,0.1,0
太陽能(Solar),東勢新伯公,20:40:00,0.1,0
太陽能(Solar),東勢新伯公,20:50:00,0.1,0
太陽能(Solar),東勢新伯公,21:00:00,0.1,0
太陽能(Solar),東勢新伯公,21:10:00,0.1,0
太陽能(Solar),東勢新伯公,21:20:00,0.1,0
太陽能(Solar),東勢新伯公,21:30:00,0.1,0
太陽能(Solar),東勢新伯公,21:40:00,0.1,0
太陽能(Solar),東勢新伯公,21:50:00,0.1,0
太陽能(Solar),東勢新伯公,22:00:00,0.1,0
太陽能(Solar),東勢新伯公,22:10:00,0.1,0
太陽能(Solar),東勢新伯公,22:20:00,0.1,0
太陽能(Solar),東勢新伯公,22:30:00,0.1,0
太陽能(Solar),東勢新伯公,22:40:00,0.1,0
太陽能(Solar),東勢新伯公,22:50:00,0.1,0
太陽能(Solar),東勢新伯公,23:00:00,0.1,0
太陽能(Solar),東勢新伯公,23:10:00,0.1,0
太陽能(Solar),東勢新伯公,23:20:00,0.1,0
太陽能(Solar),東勢新伯公,23:30:00,0.1,0
太陽能(Solar),東勢新伯公,23:40:00,0.1,0
太陽能(Solar),東勢新伯公,23:50:00,0.1,0
